[[[{"header":{"parameterUnit":"kt","parameterCategory":2,"dx":1,"dy":1,"la1":30.253999710083008,"la2":30.299108505249023,"lo1":-89.0895004272461,"lo2":-89.04439544677734,"nx":28,"ny":28,"refTime":"2022-10-26T21:00:00:Z","depth":"0","parameterNumber":2,"parameterNumberName":"U-component_of_CURRENTS"},"data":[0.1316,0.1354,0.1391,0.1443,0.1483,0.151,0.1545,0.1643,0.1869,0.2406,0.2928,0.3363,0.4293,0.5207,0.5534,0.5417,0.4766,0.4773,0.4389,0.4549,0.4469,0.4392,0.4462,0.5143,0.5143,0.3954,0.3946,0.394,0.1326,0.1367,0.1417,0.1464,0.151,0.1542,0.1625,0.166,0.1849,0.2239,0.2566,0.3435,0.4045,0.4494,0.5126,0.5068,0.4563,0.492,0.4312,0.4098,0.4395,0.4497,0.5196,0.5196,0.5196,0.5196,0.5196,0.5196,0.1348,0.137,0.1415,0.1466,0.1515,0.1567,0.1581,0.1707,0.185,0.2096,0.2417,0.2834,0.3528,0.4085,0.4136,0.4449,0.3982,0.4302,0.4152,0.3775,0.3706,0.4127,0.4635,0.4632,0.463,0.4628,0.4626,0,0.1357,0.1381,0.1401,0.146,0.1498,0.1528,0.1581,0.1638,0.1719,0.1883,0.2203,0.2444,0.2991,0.3352,0.3681,0.3716,0.3174,0.3481,0.3377,0.3377,0.3137,0.3007,0.3059,0.337,0.3359,0.3352,0.3346,0.3342,0.1363,0.1381,0.1415,0.144,0.1453,0.1466,0.1491,0.1494,0.1547,0.176,0.1842,0.2141,0.2404,0.2752,0.2884,0.3011,0.27,0.323,0.3026,0.308,0.3001,0.2651,0.2501,0.3233,0.3247,0.3259,0.3268,0,0.1361,0.1389,0.1405,0.1415,0.142,0.1417,0.1452,0.1458,0.1475,0.1573,0.1588,0.1702,0.1951,0.1971,0.2008,0.2037,0.2159,0.2276,0.2519,0.2618,0.2947,0.2842,0.2784,0.2647,0.2675,0.2688,0.2698,0,0.1365,0.1372,0.1402,0.1415,0.1412,0.141,0.1406,0.1385,0.1393,0.1451,0.139,0.1508,0.1416,0.1554,0.1513,0.1817,0.1606,0.1865,0.1934,0.205,0.2103,0.2097,0.1998,0.1371,0.137,0.1369,0.1368,0,0.1354,0.1384,0.1406,0.1416,0.1428,0.1421,0.1417,0.1397,0.141,0.1363,0.1406,0.1321,0.1405,0.1328,0.1479,0.1365,0.1562,0.1404,0.182,0.1855,0.2029,0.2086,0.2153,0.1366,0.1366,0.1365,0.1365,0,0.1363,0.1388,0.1421,0.1417,0.1422,0.1431,0.1417,0.1417,0.1386,0.138,0.1338,0.1332,0.1323,0.1311,0.1332,0.1318,0.1341,0.1364,0.137,0.1789,0.1866,0.2161,0.2323,0.2291,0.1502,0.1502,0.1502,0,0.134,0.1384,0.1407,0.1426,0.1446,0.1458,0.1455,0.1447,0.1447,0.1425,0.1393,0.1381,0.1373,0.1374,0.1337,0.1381,0.137,0.1344,0.1406,0.141,0.1803,0.1906,0.2094,0.2291,0.15,0.15,0.15,0,0.1329,0.1384,0.139,0.1397,0.1443,0.1453,0.1466,0.1463,0.1446,0.1451,0.142,0.141,0.1391,0.1385,0.1387,0.1365,0.1381,0.1384,0.1383,0.1448,0.1395,0.1849,0.1895,0.1338,0.1336,0.1335,0.1499,0,0.1333,0.136,0.1377,0.1417,0.1433,0.1457,0.1477,0.1483,0.1491,0.1483,0.1458,0.1462,0.1441,0.1451,0.1459,0.1419,0.1464,0.1437,0.1426,0.1413,0.1498,0.1499,0.149,0.149,0.149,0.149,0,0,0.1303,0.1345,0.1374,0.14,0.1416,0.1442,0.146,0.147,0.1495,0.1479,0.15,0.148,0.1489,0.1453,0.1462,0.1477,0.1496,0.146,0.1433,0.1427,0.1421,0.1499,0.15,0.1491,0.1491,0.1491,0.1491,0,0.1311,0.1341,0.1365,0.1386,0.1425,0.1441,0.1449,0.148,0.1484,0.1496,0.1495,0.1486,0.1499,0.1485,0.148,0.1482,0.1492,0.1494,0.1463,0.1437,0.143,0.1424,0.1499,0.15,0.1492,0.1492,0.1492,0,0.1301,0.1333,0.1348,0.1393,0.1415,0.1437,0.1445,0.1472,0.1481,0.1482,0.1491,0.1492,0.1491,0.1491,0.1491,0.149,0.149,0.1488,0.1487,0.1463,0.1435,0.1428,0.1423,0.1493,0.1493,0.1493,0,0,0.1302,0.133,0.1369,0.1397,0.1411,0.1437,0.1451,0.1465,0.148,0.1485,0.1488,0.1492,0.1489,0.1488,0.1492,0.1489,0.1494,0.1486,0.1486,0.1486,0.1463,0.1435,0.1429,0.1492,0.1492,0.1492,0,0,0.1302,0.1351,0.1362,0.1397,0.1422,0.1453,0.1467,0.1475,0.1484,0.1486,0.1484,0.1485,0.1486,0.1489,0.1483,0.1485,0.1488,0.1489,0.1475,0.1475,0.1475,0.1444,0.1477,0,0,0,0,0,0.1325,0.1346,0.1355,0.1366,0.1418,0.1449,0.1454,0.1474,0.1476,0.1483,0.1487,0.1481,0.149,0.1484,0.1483,0.1476,0.1486,0.1487,0.1488,0.147,0.147,0.147,0,0,0,0,0,0,0.133,0.1343,0.1355,0.1389,0.1401,0.1448,0.1453,0.1458,0.1476,0.1478,0.1481,0.1481,0.148,0.1484,0.1483,0.1477,0.1477,0.1486,0.1487,0.1488,0.147,0.147,0.147,0,0,0,0,0,0.1333,0.1344,0.1426,0.1388,0.1398,0.1431,0.1453,0.1457,0.1468,0.1475,0.1476,0.1484,0.148,0.148,0.1484,0.1477,0.1478,0.1477,0.1487,0.1488,0.1488,0.147,0,0,0,0,0,0,0.1336,0.1338,0.1428,0.1432,0.1389,0.1428,0.1436,0.1456,0.1464,0.1466,0.1477,0.1478,0.148,0.148,0.1479,0.1477,0.1478,0.1478,0.1478,0.1487,0.1488,0.1489,0,0,0,0,0,0,0.1333,0.1341,0.143,0.143,0.1433,0.1426,0.1433,0.1429,0.1462,0.1463,0.1466,0.1477,0.1475,0.148,0.1479,0.1473,0.1478,0.1478,0.1478,0.1478,0.1488,0.1488,0,0,0,0,0,0,0.1336,0.1343,0.1428,0.1431,0.1434,0.1471,0.1421,0.1467,0.1484,0.1461,0.1484,0.1485,0.1474,0.1474,0.1479,0.1473,0.1473,0.1478,0.1478,0.1478,0.1478,0,0,0,0,0,0,0,0.1339,0.1292,0.1412,0.1432,0.1435,0.1465,0.1465,0.1466,0.1484,0.1484,0.1484,0.1485,0.148,0.148,0.148,0.1473,0,0,0.1478,0.1478,0,0,0,0,0,0,0,0,0.1289,0.1292,0.1413,0.1414,0.1415,0.1465,0.1465,0.1466,0.1484,0.1484,0.1484,0.1484,0.148,0.148,0.148,0,0,0,0,0,0,0,0,0,0,0,0,0,0,0,0.1413,0.1413,0,0.1465,0.1465,0.1465,0.1484,0.1484,0.1484,0.1484,0.148,0.148,0.148,0,0,0,0,0,0,0,0,0,0,0,0,0,0,0,0,0,0,0,0,0,0,0,0,0,0,0,0,0,0,0,0,0,0,0,0,0,0,0,0,0,0,0,0,0,0,0,0,0,0,0,0,0,0,0,0,0,0,0,0,0,0,0,0,0,0,0,0,0]}],[{"header":{"parameterUnit":"kt","parameterCategory":2,"dx":1,"dy":1,"la1":30.253999710083008,"la2":30.299108505249023,"lo1":-89.0895004272461,"lo2":-89.04439544677734,"nx":28,"ny":28,"refTime":"2022-10-26T21:00:00:Z","depth":"0","parameterNumber":3,"parameterNumberName":"V-component_of_CURRENTS"},"data":[-0.0084,0.0018,0.0047,0.0276,0.0373,0.0648,0.0878,0.1368,0.1735,0.2374,0.2616,0.2682,0.2077,0.001,-0.1536,-0.1944,-0.2514,-0.2531,-0.2879,-0.2574,-0.2562,-0.255,-0.2611,-0.2688,-0.269,-0.3382,-0.339,-0.3396,-0.0159,-0.0124,-0.0048,0.0046,0.018,0.0167,0.0464,0.0727,0.1239,0.1625,0.197,0.1936,0.1298,0.0447,-0.0682,-0.1367,-0.1702,-0.1783,-0.2045,-0.2147,-0.1513,-0.152,-0.1366,-0.1366,-0.1365,-0.1365,-0.1365,-0.1364,-0.0298,-0.0255,-0.0238,-0.0171,-0.0107,0.0058,0.0205,0.0405,0.0695,0.1111,0.1125,0.1402,0.0881,0.0216,-0.0266,-0.1129,-0.1224,-0.1407,-0.1642,-0.1755,-0.1887,-0.109,-0.0944,-0.0946,-0.0947,-0.0949,-0.095,0,-0.041,-0.0419,-0.0429,-0.0365,-0.0329,-0.0288,-0.0227,-0.0079,-0.0068,0.0135,0.0456,0.0546,0.0293,0.0046,-0.0458,-0.0737,-0.1585,-0.1289,-0.166,-0.1878,-0.194,-0.2003,-0.1341,-0.133,-0.1334,-0.1336,-0.1339,-0.134,-0.05,-0.0521,-0.0575,-0.0548,-0.0587,-0.0607,-0.0587,-0.0682,-0.06,-0.0481,-0.0338,-0.0362,-0.0266,-0.0532,-0.0952,-0.1266,-0.1609,-0.1374,-0.1538,-0.1795,-0.1966,-0.2089,-0.2186,-0.1382,-0.1377,-0.1373,-0.1369,0,-0.0535,-0.0623,-0.0667,-0.0784,-0.0804,-0.0814,-0.0837,-0.0846,-0.0921,-0.0799,-0.0798,-0.0924,-0.0956,-0.1254,-0.1437,-0.1642,-0.1882,-0.175,-0.1552,-0.1468,-0.1747,-0.1944,-0.22,-0.2322,-0.1699,-0.1695,-0.1692,0,-0.0623,-0.0671,-0.0779,-0.0805,-0.0845,-0.0973,-0.1017,-0.112,-0.1188,-0.1113,-0.1392,-0.1296,-0.1634,-0.1669,-0.1842,-0.185,-0.1921,-0.1935,-0.1866,-0.1764,-0.1734,-0.1985,-0.2177,-0.2136,-0.2137,-0.2138,-0.2138,0,-0.0629,-0.0757,-0.0815,-0.0855,-0.0987,-0.1041,-0.1105,-0.1259,-0.1265,-0.145,-0.1403,-0.1698,-0.1631,-0.1849,-0.1857,-0.1915,-0.1937,-0.198,-0.1876,-0.1857,-0.1738,-0.1702,-0.2126,-0.2139,-0.2139,-0.214,-0.214,0,-0.0696,-0.075,-0.0833,-0.095,-0.0976,-0.1032,-0.1158,-0.1238,-0.1402,-0.1447,-0.1611,-0.1659,-0.1811,-0.1808,-0.196,-0.1934,-0.1948,-0.194,-0.1935,-0.1777,-0.1619,-0.144,-0.1507,-0.1823,-0.1754,-0.1753,-0.1751,0,-0.0678,-0.0761,-0.0825,-0.0912,-0.0957,-0.1033,-0.1119,-0.1224,-0.13,-0.1389,-0.1511,-0.1568,-0.1646,-0.1647,-0.1788,-0.175,-0.1844,-0.1811,-0.1746,-0.1742,-0.1605,-0.1713,-0.1591,-0.1492,-0.1731,-0.1733,-0.1734,0,-0.0651,-0.0764,-0.0771,-0.0816,-0.0903,-0.0928,-0.1036,-0.1144,-0.1209,-0.13,-0.1395,-0.1531,-0.1559,-0.1598,-0.1614,-0.1699,-0.1788,-0.1648,-0.1648,-0.1606,-0.185,-0.1695,-0.1693,-0.1804,-0.1809,-0.1813,-0.1718,0,-0.0713,-0.0746,-0.0761,-0.0829,-0.0865,-0.0902,-0.0967,-0.1016,-0.1043,-0.1103,-0.1226,-0.1254,-0.134,-0.1358,-0.1363,-0.1522,-0.145,-0.143,-0.1402,-0.1508,-0.1436,-0.145,-0.1256,-0.1253,-0.1251,-0.125,0,0,-0.0677,-0.0711,-0.072,-0.0764,-0.0797,-0.0812,-0.086,-0.0902,-0.0948,-0.1001,-0.0966,-0.1095,-0.11,-0.1246,-0.1292,-0.1259,-0.1249,-0.1298,-0.1434,-0.1454,-0.1473,-0.1414,-0.1429,-0.1246,-0.1245,-0.1245,-0.1244,0,-0.0697,-0.0689,-0.071,-0.0743,-0.0781,-0.0805,-0.0813,-0.0849,-0.0879,-0.0934,-0.0943,-0.1001,-0.1036,-0.1102,-0.1132,-0.1222,-0.1192,-0.1218,-0.1356,-0.1413,-0.1436,-0.1457,-0.1403,-0.1418,-0.1239,-0.124,-0.124,0,-0.0699,-0.0712,-0.0713,-0.0737,-0.0757,-0.0801,-0.0782,-0.0806,-0.0856,-0.0829,-0.0893,-0.0905,-0.093,-0.1004,-0.103,-0.101,-0.1138,-0.1092,-0.1101,-0.115,-0.1208,-0.1233,-0.1256,-0.0966,-0.0965,-0.0965,0,0,-0.0713,-0.0719,-0.0745,-0.0741,-0.0755,-0.0776,-0.0787,-0.08,-0.0821,-0.0829,-0.0847,-0.087,-0.0911,-0.0937,-0.0956,-0.1014,-0.1005,-0.1063,-0.1075,-0.1086,-0.114,-0.12,-0.1224,-0.0963,-0.0963,-0.0963,0,0,-0.072,-0.0741,-0.0746,-0.0738,-0.0767,-0.079,-0.0797,-0.0803,-0.0824,-0.0823,-0.0831,-0.0836,-0.089,-0.0882,-0.0856,-0.0971,-0.0912,-0.0917,-0.1,-0.1016,-0.1028,-0.1092,-0.0846,0,0,0,0,0,-0.075,-0.074,-0.0744,-0.0745,-0.0758,-0.0788,-0.0792,-0.0803,-0.0794,-0.0807,-0.0822,-0.0815,-0.0881,-0.0858,-0.0861,-0.0933,-0.0938,-0.0942,-0.0947,-0.1064,-0.1081,-0.1095,0,0,0,0,0,0,-0.0751,-0.0751,-0.0745,-0.0763,-0.0767,-0.0787,-0.078,-0.0784,-0.0794,-0.0795,-0.0813,-0.0815,-0.0824,-0.0855,-0.0859,-0.0928,-0.0845,-0.094,-0.0943,-0.0947,-0.107,-0.1084,-0.1095,0,0,0,0,0,-0.0751,-0.0752,-0.0764,-0.0764,-0.0767,-0.0783,-0.078,-0.0783,-0.0791,-0.0807,-0.081,-0.0799,-0.0824,-0.0827,-0.0857,-0.0928,-0.0842,-0.0844,-0.0942,-0.0945,-0.0948,-0.1077,0,0,0,0,0,0,-0.0752,-0.0758,-0.0766,-0.0768,-0.0762,-0.0783,-0.0785,-0.0782,-0.0803,-0.0806,-0.0794,-0.0794,-0.0824,-0.0826,-0.0829,-0.093,-0.084,-0.0842,-0.0842,-0.0944,-0.0947,-0.0949,0,0,0,0,0,0,-0.0758,-0.0759,-0.0767,-0.0763,-0.0764,-0.0783,-0.0785,-0.0799,-0.0803,-0.0789,-0.079,-0.0794,-0.0819,-0.0826,-0.0828,-0.085,-0.0839,-0.084,-0.0841,-0.0841,-0.0946,-0.0948,0,0,0,0,0,0,-0.0759,-0.076,-0.0762,-0.0764,-0.0765,-0.079,-0.0797,-0.0808,-0.0801,-0.0788,-0.08,-0.08,-0.0818,-0.082,-0.0827,-0.0848,-0.085,-0.0839,-0.084,-0.084,-0.0841,0,0,0,0,0,0,0,-0.076,-0.0744,-0.0753,-0.0764,-0.0766,-0.0788,-0.0788,-0.0789,-0.0801,-0.0801,-0.0801,-0.08,-0.0831,-0.0833,-0.0834,-0.0847,0,0,-0.0839,-0.0839,0,0,0,0,0,0,0,0,-0.0744,-0.0744,-0.0753,-0.0754,-0.0754,-0.0788,-0.0788,-0.0789,-0.0801,-0.0801,-0.0801,-0.08,-0.0832,-0.0833,-0.0834,0,0,0,0,0,0,0,0,0,0,0,0,0,0,0,-0.0753,-0.0754,0,-0.0788,-0.0788,-0.0788,-0.0801,-0.0801,-0.0801,-0.08,-0.0832,-0.0833,-0.0834,0,0,0,0,0,0,0,0,0,0,0,0,0,0,0,0,0,0,0,0,0,0,0,0,0,0,0,0,0,0,0,0,0,0,0,0,0,0,0,0,0,0,0,0,0,0,0,0,0,0,0,0,0,0,0,0,0,0,0,0,0,0,0,0,0,0,0,0,0]}]],[[{"header":{"parameterUnit":"kt","parameterCategory":2,"dx":1,"dy":1,"la1":30.253999710083008,"la2":30.299108505249023,"lo1":-89.0895004272461,"lo2":-89.04439544677734,"nx":28,"ny":28,"refTime":"2022-10-26T21:00:00:Z","depth":"2","parameterNumber":2,"parameterNumberName":"U-component_of_CURRENTS"},"data":[0.1438,0.1482,0.1524,0.1618,0.1684,0.1814,0.1942,0.2098,0.2297,0.2458,0.2581,0.2823,0.3004,0.2703,0.2688,0.2588,0.2436,0.2494,0.3267,0.2644,0.2629,0.2562,0.2549,0,0,0,0,0,0.145,0.1495,0.1552,0.1629,0.1701,0.1748,0.1951,0.2048,0.23,0.2563,0.2818,0.2776,0.29,0.3031,0.2998,0.3051,0.2727,0.2935,0.2406,0.2401,0.2393,0.2376,0.2469,0.2465,0.2461,0.2458,0,0,0.1479,0.1502,0.1554,0.1618,0.1687,0.1793,0.1877,0.2038,0.2224,0.2496,0.2771,0.3011,0.3129,0.3359,0.3344,0.3311,0.3428,0.3134,0.3105,0.3078,0.3123,0.3195,0.3402,0.3405,0.3408,0.3411,0.3413,0,0.1499,0.1522,0.1556,0.1623,0.1677,0.1743,0.1837,0.1935,0.2088,0.2264,0.2623,0.2818,0.3219,0.3274,0.3491,0.3442,0.3012,0.3128,0.3214,0.2378,0.2419,0.2364,0.2348,0.2475,0.2473,0.2472,0.2471,0.247,0.1516,0.1535,0.1595,0.1627,0.1649,0.1684,0.1733,0.1786,0.1881,0.2158,0.2277,0.2578,0.2823,0.3144,0.3182,0.3239,0.316,0.3064,0.2808,0.2891,0.2846,0.2819,0.2796,0.245,0.2453,0.2455,0.2457,0,0.1521,0.1561,0.1595,0.1639,0.1654,0.1664,0.1745,0.1777,0.1827,0.1978,0.2002,0.2179,0.2438,0.2492,0.2569,0.2578,0.2677,0.2794,0.2555,0.2522,0.2735,0.2726,0.2993,0.3007,0.3018,0.3028,0.3036,0,0.1542,0.1564,0.1615,0.1633,0.1658,0.1689,0.1717,0.1745,0.1799,0.1898,0.1871,0.2015,0.1976,0.2145,0.2139,0.2413,0.2255,0.2443,0.243,0.2142,0.2148,0.201,0.2002,0.2068,0.2067,0.2066,0.2066,0,0.1532,0.1592,0.1632,0.1653,0.1704,0.1736,0.1755,0.1799,0.1841,0.1836,0.1893,0.187,0.1936,0.1922,0.2096,0.1986,0.2243,0.2016,0.233,0.235,0.2139,0.2145,0.2065,0.2065,0.2065,0.2065,0.2064,0,0.1552,0.1589,0.1642,0.1682,0.1696,0.1715,0.1776,0.1795,0.1834,0.1844,0.1861,0.1841,0.1906,0.1879,0.1964,0.1949,0.197,0.1989,0.1987,0.2331,0.2247,0.2058,0.2136,0.1942,0.1941,0.194,0.1939,0,0.153,0.1588,0.1627,0.1668,0.1699,0.1752,0.1777,0.1819,0.1835,0.1841,0.1844,0.1821,0.185,0.1833,0.1869,0.1898,0.1927,0.1889,0.1885,0.1887,0.2184,0.2315,0.2034,0.2113,0.1925,0.1926,0.1927,0,0.1514,0.1586,0.1593,0.1613,0.1675,0.1692,0.175,0.1795,0.1801,0.1818,0.1827,0.1847,0.1828,0.1833,0.1815,0.1844,0.1898,0.1859,0.1857,0.1892,0.1911,0.225,0.2291,0.1835,0.1837,0.1838,0.1916,0,0.1528,0.1561,0.1579,0.1627,0.1654,0.1683,0.171,0.1741,0.1749,0.1753,0.1764,0.1742,0.1746,0.1739,0.1767,0.1799,0.1817,0.1752,0.1745,0.177,0.18,0.1809,0.1702,0.1701,0.1701,0.1701,0,0,0.1495,0.154,0.1566,0.1597,0.1624,0.164,0.167,0.168,0.1703,0.172,0.1705,0.1713,0.1703,0.1709,0.1744,0.1707,0.173,0.1756,0.1753,0.1758,0.1764,0.1793,0.1802,0.1701,0.1701,0.1701,0.1701,0,0.1504,0.1532,0.1557,0.1581,0.162,0.1635,0.1644,0.1673,0.1681,0.1695,0.1691,0.1691,0.1692,0.169,0.1688,0.1704,0.1711,0.1702,0.1775,0.175,0.1756,0.1761,0.1791,0.1799,0.17,0.17,0.1701,0,0.1493,0.1524,0.1539,0.1583,0.1603,0.1628,0.1629,0.1656,0.1672,0.1659,0.1676,0.167,0.1667,0.1673,0.1675,0.1669,0.17,0.1674,0.1675,0.1742,0.1719,0.1725,0.1731,0.1658,0.1658,0.1658,0,0,0.1496,0.1524,0.156,0.1586,0.16,0.1621,0.1634,0.1646,0.1659,0.1663,0.1663,0.1664,0.1664,0.1663,0.1665,0.1665,0.1683,0.1668,0.167,0.1672,0.1738,0.1716,0.1722,0.1657,0.1657,0.1657,0,0,0.1495,0.1541,0.1551,0.1584,0.1607,0.1633,0.1646,0.1652,0.1659,0.1661,0.1654,0.1653,0.166,0.1656,0.1648,0.1658,0.1651,0.1652,0.1655,0.1657,0.1659,0.1741,0.1636,0,0,0,0,0,0.1517,0.1537,0.1545,0.1555,0.1601,0.1629,0.1633,0.1649,0.1649,0.1657,0.1658,0.1649,0.1655,0.1648,0.1646,0.1648,0.1648,0.1649,0.1651,0.1655,0.1658,0.166,0,0,0,0,0,0,0.1521,0.1533,0.1545,0.1573,0.1584,0.1628,0.1629,0.1632,0.1649,0.165,0.1649,0.1648,0.1644,0.1648,0.1646,0.1648,0.1636,0.1648,0.165,0.1651,0.1656,0.1658,0.166,0,0,0,0,0,0.1524,0.1534,0.1607,0.1572,0.1581,0.1608,0.1628,0.1632,0.1641,0.1643,0.1643,0.1655,0.1644,0.1642,0.1647,0.1649,0.1637,0.1636,0.1649,0.165,0.1651,0.1657,0,0,0,0,0,0,0.1527,0.1527,0.1609,0.1611,0.1573,0.1605,0.1612,0.1631,0.1632,0.1634,0.1647,0.1648,0.1643,0.1642,0.1641,0.165,0.1638,0.1637,0.1637,0.165,0.1651,0.1652,0,0,0,0,0,0,0.1522,0.1529,0.161,0.161,0.1613,0.1603,0.1609,0.1603,0.1631,0.1635,0.1637,0.1648,0.164,0.1642,0.1642,0.1632,0.1638,0.1638,0.1638,0.1637,0.1651,0.1651,0,0,0,0,0,0,0.1525,0.1531,0.1609,0.1611,0.1614,0.1644,0.1596,0.1636,0.1651,0.1633,0.1652,0.1652,0.1639,0.1639,0.1642,0.1633,0.1632,0.1638,0.1638,0.1638,0.1638,0,0,0,0,0,0,0,0.1527,0.1487,0.1597,0.1612,0.1614,0.1639,0.1639,0.164,0.1652,0.1652,0.1652,0.1652,0.1641,0.1641,0.164,0.1633,0,0,0.1638,0.1638,0,0,0,0,0,0,0,0,0.1485,0.1487,0.1597,0.1598,0.1599,0.1639,0.1639,0.1639,0.1652,0.1652,0.1652,0.1652,0.1641,0.1641,0.164,0,0,0,0,0,0,0,0,0,0,0,0,0,0,0,0.1597,0.1598,0,0.1639,0.1639,0.1639,0.1652,0.1652,0.1652,0.1652,0.1641,0.1641,0.164,0,0,0,0,0,0,0,0,0,0,0,0,0,0,0,0,0,0,0,0,0,0,0,0,0,0,0,0,0,0,0,0,0,0,0,0,0,0,0,0,0,0,0,0,0,0,0,0,0,0,0,0,0,0,0,0,0,0,0,0,0,0,0,0,0,0,0,0,0]}],[{"header":{"parameterUnit":"kt","parameterCategory":2,"dx":1,"dy":1,"la1":30.253999710083008,"la2":30.299108505249023,"lo1":-89.0895004272461,"lo2":-89.04439544677734,"nx":28,"ny":28,"refTime":"2022-10-26T21:00:00:Z","depth":"2","parameterNumber":3,"parameterNumberName":"V-component_of_CURRENTS"},"data":[0.0112,0.0198,0.0225,0.0417,0.0503,0.0708,0.0827,0.0869,0.0948,0.0993,0.1001,0.0915,0.0458,0.0096,-0.0386,-0.068,-0.0791,-0.0738,-0.0663,-0.0713,-0.0715,-0.1077,-0.1002,0,0,0,0,0,0.0057,0.0089,0.016,0.0245,0.0363,0.0362,0.0534,0.0611,0.0744,0.0837,0.0873,0.0622,0.0283,-0.0053,-0.0571,-0.0899,-0.0994,-0.0977,-0.1058,-0.1065,-0.1071,-0.1021,-0.1001,-0.1001,-0.1002,-0.1002,0,0,-0.0046,-0.0008,0.0012,0.0076,0.0142,0.0258,0.0347,0.0416,0.0511,0.0632,0.0628,0.0609,0.0281,-0.0162,-0.0491,-0.0835,-0.0852,-0.1013,-0.1019,-0.1027,-0.097,-0.094,-0.0937,-0.0937,-0.0937,-0.0937,-0.0937,0,-0.0128,-0.0139,-0.0121,-0.007,-0.0025,0.0031,0.0081,0.0161,0.0163,0.0217,0.0342,0.0308,0.0114,-0.017,-0.0515,-0.0702,-0.1009,-0.0998,-0.1021,-0.111,-0.1088,-0.1116,-0.1118,-0.1121,-0.1122,-0.1123,-0.1123,-0.1124,-0.0201,-0.021,-0.0217,-0.0186,-0.0197,-0.0199,-0.0173,-0.0232,-0.0175,-0.0124,-0.0024,-0.0081,-0.0103,-0.0337,-0.0606,-0.0888,-0.0909,-0.1017,-0.1073,-0.1086,-0.1114,-0.1114,-0.1113,-0.1134,-0.1132,-0.1131,-0.1131,0,-0.023,-0.028,-0.0274,-0.0319,-0.0325,-0.0321,-0.0318,-0.0312,-0.0387,-0.0313,-0.0323,-0.0411,-0.0477,-0.0683,-0.0826,-0.096,-0.1072,-0.1068,-0.1062,-0.1083,-0.1128,-0.1125,-0.1126,-0.1124,-0.1121,-0.112,-0.1118,0,-0.0288,-0.0291,-0.0352,-0.0354,-0.0345,-0.0415,-0.0428,-0.0468,-0.0519,-0.0482,-0.0675,-0.063,-0.085,-0.0891,-0.1022,-0.1065,-0.1106,-0.1109,-0.1136,-0.115,-0.1144,-0.1144,-0.1136,-0.1207,-0.1206,-0.1205,-0.1205,0,-0.0321,-0.0363,-0.0373,-0.0382,-0.0441,-0.0432,-0.0462,-0.055,-0.0557,-0.0694,-0.0672,-0.0868,-0.0887,-0.0993,-0.1056,-0.1074,-0.1088,-0.1165,-0.1137,-0.1134,-0.1106,-0.1098,-0.1204,-0.1204,-0.1204,-0.1203,-0.1203,0,-0.0371,-0.0395,-0.0422,-0.0447,-0.0455,-0.0484,-0.0505,-0.0564,-0.0659,-0.0705,-0.0794,-0.0878,-0.0975,-0.0994,-0.1096,-0.1056,-0.1096,-0.1112,-0.1117,-0.0976,-0.1015,-0.1088,-0.115,-0.1206,-0.1205,-0.1205,-0.1204,0,-0.0368,-0.0411,-0.0444,-0.0469,-0.0486,-0.0501,-0.0555,-0.0605,-0.0669,-0.0729,-0.0827,-0.0916,-0.0966,-0.1008,-0.105,-0.1075,-0.1117,-0.1089,-0.1096,-0.1096,-0.1011,-0.1065,-0.1076,-0.1145,-0.1198,-0.1199,-0.1199,0,-0.0369,-0.0437,-0.044,-0.0449,-0.0505,-0.0518,-0.0566,-0.061,-0.0646,-0.0728,-0.0768,-0.0898,-0.0943,-0.0973,-0.1033,-0.105,-0.1116,-0.1007,-0.1007,-0.1041,-0.1155,-0.107,-0.1067,-0.1105,-0.1105,-0.1105,-0.1194,0,-0.0415,-0.0429,-0.044,-0.0487,-0.0508,-0.0524,-0.0589,-0.0606,-0.0641,-0.0695,-0.077,-0.0855,-0.0907,-0.096,-0.0963,-0.1025,-0.0994,-0.0994,-0.0955,-0.1007,-0.1043,-0.1048,-0.0967,-0.0965,-0.0963,-0.0962,0,0,-0.0395,-0.0413,-0.0439,-0.0467,-0.0474,-0.0514,-0.0532,-0.0585,-0.0634,-0.0647,-0.0665,-0.0754,-0.0809,-0.0895,-0.0925,-0.0958,-0.0936,-0.0905,-0.0987,-0.099,-0.0993,-0.103,-0.1036,-0.0959,-0.0958,-0.0958,-0.0957,0,-0.041,-0.0409,-0.0428,-0.0451,-0.0489,-0.0512,-0.052,-0.056,-0.059,-0.0641,-0.0659,-0.072,-0.0764,-0.0823,-0.0852,-0.0928,-0.0897,-0.0936,-0.0943,-0.0974,-0.098,-0.0984,-0.1022,-0.1029,-0.0953,-0.0954,-0.0954,0,-0.0411,-0.0426,-0.0429,-0.0457,-0.0479,-0.051,-0.0509,-0.0535,-0.0572,-0.0567,-0.0621,-0.0647,-0.0676,-0.0746,-0.0772,-0.0755,-0.0851,-0.0832,-0.084,-0.0775,-0.0801,-0.0808,-0.0814,-0.0729,-0.0729,-0.0728,0,0,-0.0422,-0.043,-0.0459,-0.0461,-0.0475,-0.0501,-0.0514,-0.053,-0.0555,-0.0565,-0.0589,-0.0617,-0.0659,-0.0685,-0.0708,-0.0764,-0.074,-0.0809,-0.0819,-0.0828,-0.0769,-0.0796,-0.0803,-0.0727,-0.0727,-0.0727,0,0,-0.0428,-0.0453,-0.046,-0.0459,-0.0489,-0.0517,-0.0526,-0.0537,-0.0562,-0.0563,-0.0579,-0.0585,-0.064,-0.0637,-0.0615,-0.0722,-0.0674,-0.0678,-0.0745,-0.0758,-0.0768,-0.0693,-0.0612,0,0,0,0,0,-0.0456,-0.045,-0.0457,-0.0459,-0.0482,-0.0513,-0.0519,-0.0535,-0.0531,-0.0545,-0.0565,-0.0564,-0.0636,-0.0616,-0.0622,-0.0686,-0.0706,-0.071,-0.0713,-0.081,-0.0824,-0.0835,0,0,0,0,0,0,-0.0457,-0.046,-0.0457,-0.0481,-0.0487,-0.0513,-0.0511,-0.0516,-0.0531,-0.0532,-0.056,-0.0565,-0.0577,-0.0613,-0.0619,-0.068,-0.061,-0.0708,-0.0711,-0.0714,-0.0815,-0.0826,-0.0836,0,0,0,0,0,-0.0458,-0.0461,-0.0488,-0.0482,-0.0487,-0.0511,-0.051,-0.0515,-0.0528,-0.0551,-0.0556,-0.054,-0.0577,-0.0583,-0.0616,-0.0679,-0.0607,-0.0609,-0.071,-0.0712,-0.0714,-0.082,0,0,0,0,0,0,-0.0459,-0.0468,-0.049,-0.0493,-0.0479,-0.051,-0.0514,-0.0514,-0.0546,-0.0551,-0.0531,-0.0531,-0.0577,-0.0581,-0.0586,-0.068,-0.0604,-0.0606,-0.0607,-0.0712,-0.0714,-0.0715,0,0,0,0,0,0,-0.0467,-0.047,-0.0491,-0.0487,-0.0489,-0.051,-0.0513,-0.0534,-0.0546,-0.0524,-0.0525,-0.0531,-0.0571,-0.058,-0.0584,-0.0616,-0.0601,-0.0603,-0.0605,-0.0605,-0.0713,-0.0715,0,0,0,0,0,0,-0.0469,-0.0472,-0.0486,-0.0488,-0.049,-0.0524,-0.0529,-0.0551,-0.0541,-0.0522,-0.0541,-0.054,-0.0569,-0.0573,-0.0582,-0.0613,-0.0615,-0.0601,-0.0603,-0.0604,-0.0604,0,0,0,0,0,0,0,-0.0471,-0.0445,-0.0473,-0.0489,-0.0491,-0.052,-0.0521,-0.0521,-0.0541,-0.0541,-0.0541,-0.054,-0.059,-0.0592,-0.0595,-0.0611,0,0,-0.0601,-0.0602,0,0,0,0,0,0,0,0,-0.0445,-0.0445,-0.0473,-0.0473,-0.0474,-0.052,-0.0521,-0.0521,-0.0541,-0.0541,-0.0541,-0.0541,-0.0591,-0.0593,-0.0594,0,0,0,0,0,0,0,0,0,0,0,0,0,0,0,-0.0473,-0.0473,0,-0.052,-0.052,-0.0521,-0.0541,-0.0541,-0.0541,-0.0541,-0.0591,-0.0593,-0.0594,0,0,0,0,0,0,0,0,0,0,0,0,0,0,0,0,0,0,0,0,0,0,0,0,0,0,0,0,0,0,0,0,0,0,0,0,0,0,0,0,0,0,0,0,0,0,0,0,0,0,0,0,0,0,0,0,0,0,0,0,0,0,0,0,0,0,0,0,0]}]],[[{"header":{"parameterUnit":"kt","parameterCategory":2,"dx":1,"dy":1,"la1":30.253999710083008,"la2":30.299108505249023,"lo1":-89.0895004272461,"lo2":-89.04439544677734,"nx":28,"ny":28,"refTime":"2022-10-26T21:00:00:Z","depth":"4","parameterNumber":2,"parameterNumberName":"U-component_of_CURRENTS"},"data":[0.0695,0.0783,0.0828,0.097,0.1067,0.1205,0.1298,0.141,0.1456,0.1622,0.1701,0.1829,0.1976,0.2045,0.2137,0.2167,0.2133,0.2415,0.2411,0.2418,0.2426,0.2434,0.2399,0,0,0,0,0,0.068,0.0735,0.0839,0.0998,0.1109,0.1208,0.1364,0.1441,0.1615,0.1686,0.178,0.1921,0.2059,0.2152,0.2165,0.2296,0.2375,0.2301,0.2296,0.2423,0.2433,0.2395,0,0,0,0,0,0,0.0676,0.072,0.0835,0.0981,0.1122,0.1235,0.1329,0.1467,0.1585,0.1835,0.1873,0.2087,0.224,0.2303,0.2373,0.2415,0.2373,0.23,0.2316,0.2326,0.2277,0.2158,0.213,0,0,0,0,0,0.0688,0.0743,0.0823,0.0985,0.1117,0.1253,0.1431,0.1487,0.1695,0.1834,0.1987,0.2097,0.2261,0.2357,0.2448,0.2481,0.2555,0.255,0.2554,0.2497,0.2423,0.2365,0.2356,0.2469,0.247,0.2471,0.2471,0,0.0748,0.0765,0.0936,0.1016,0.1101,0.1262,0.1375,0.1557,0.1659,0.1917,0.1987,0.2195,0.2333,0.2419,0.2538,0.2591,0.2596,0.2576,0.2516,0.2437,0.238,0.2367,0.2355,0.2479,0.2478,0.2478,0.2477,0,0.0789,0.0857,0.093,0.1077,0.1151,0.1242,0.1465,0.1554,0.1723,0.1902,0.1974,0.2188,0.2334,0.2455,0.2587,0.2569,0.2607,0.261,0.2635,0.2581,0.2378,0.2363,0.2492,0.2489,0.2486,0.2484,0.2483,0,0.0877,0.0919,0.1048,0.1071,0.1182,0.1291,0.1432,0.1549,0.1722,0.1853,0.2024,0.2142,0.2311,0.2433,0.2482,0.254,0.2624,0.2514,0.2469,0.2506,0.249,0.2479,0.2458,0.266,0.266,0.266,0.266,0,0.0922,0.1023,0.1069,0.1106,0.1238,0.1309,0.1408,0.1573,0.1672,0.1867,0.1952,0.2132,0.2246,0.2345,0.2449,0.242,0.259,0.2513,0.2448,0.2435,0.2471,0.245,0.266,0.266,0.266,0.266,0.266,0,0.0994,0.1039,0.1098,0.1211,0.1239,0.1304,0.1451,0.154,0.1713,0.1786,0.1944,0.2018,0.2195,0.2197,0.2366,0.2328,0.2375,0.2383,0.2382,0.2272,0.2136,0.213,0.2283,0.228,0.2278,0.2276,0.2274,0,0.1016,0.1065,0.112,0.1194,0.1234,0.1326,0.1406,0.1509,0.1604,0.1714,0.1822,0.192,0.1965,0.2026,0.2138,0.2167,0.2256,0.219,0.2206,0.2206,0.2109,0.2236,0.2229,0.2242,0.2246,0.2249,0.2251,0,0.1018,0.1103,0.1113,0.1154,0.1248,0.1277,0.1377,0.1469,0.1544,0.163,0.1732,0.1844,0.1904,0.1938,0.197,0.2056,0.2194,0.2045,0.2045,0.205,0.2311,0.2204,0.2212,0.2205,0.221,0.2214,0.2229,0,0.1061,0.1103,0.1119,0.1179,0.1223,0.1261,0.1333,0.1392,0.145,0.15,0.1613,0.1651,0.1732,0.1749,0.1765,0.1918,0.1874,0.1846,0.1822,0.1923,0.1904,0.1922,0.1678,0.1676,0.1674,0.1672,0,0,0.1058,0.1083,0.1115,0.1146,0.1181,0.123,0.1266,0.1315,0.1367,0.1413,0.1414,0.1517,0.1539,0.1642,0.1698,0.1668,0.1684,0.1713,0.1852,0.1872,0.189,0.188,0.1899,0.1669,0.1668,0.1668,0.1667,0,0.105,0.109,0.1107,0.1138,0.1189,0.1211,0.1233,0.1274,0.1321,0.1372,0.1389,0.1453,0.1482,0.1533,0.1554,0.1634,0.1634,0.1642,0.1766,0.1833,0.1855,0.1875,0.1869,0.1888,0.1663,0.1663,0.1663,0,0.105,0.1071,0.1083,0.1122,0.115,0.1183,0.1189,0.1232,0.1278,0.1262,0.1338,0.1353,0.1369,0.1434,0.1464,0.1447,0.1586,0.1528,0.1536,0.1579,0.1646,0.1671,0.1693,0.1414,0.1413,0.1413,0,0,0.1048,0.1068,0.1097,0.1121,0.1141,0.1172,0.1191,0.1218,0.1243,0.1264,0.1289,0.1321,0.1353,0.1383,0.1396,0.1448,0.1454,0.1501,0.1512,0.1522,0.1569,0.1639,0.1662,0.1411,0.1411,0.1411,0,0,0.104,0.1069,0.1093,0.1118,0.1146,0.116,0.1187,0.1208,0.1244,0.1266,0.1273,0.128,0.1342,0.1335,0.1309,0.1419,0.1366,0.1371,0.1444,0.1458,0.147,0.1526,0.1305,0,0,0,0,0,0.1047,0.106,0.1082,0.109,0.1128,0.1148,0.1153,0.119,0.1214,0.1236,0.1262,0.1266,0.133,0.1306,0.1309,0.1384,0.1387,0.1391,0.1395,0.15,0.1515,0.1528,0,0,0,0,0,0,0.105,0.1058,0.1081,0.1094,0.1103,0.1147,0.116,0.1169,0.1213,0.1221,0.1259,0.1265,0.1266,0.1305,0.1308,0.138,0.1304,0.1389,0.1392,0.1396,0.1505,0.1517,0.1528,0,0,0,0,0,0.1052,0.1059,0.1117,0.1094,0.1102,0.1148,0.1161,0.1169,0.1213,0.1222,0.1232,0.1246,0.1264,0.127,0.1307,0.138,0.1302,0.1303,0.1391,0.1394,0.1396,0.1511,0,0,0,0,0,0,0.1054,0.106,0.1119,0.1122,0.1109,0.1148,0.1157,0.1169,0.1213,0.1222,0.1206,0.1211,0.1263,0.1268,0.1272,0.1382,0.1301,0.1302,0.1303,0.1393,0.1395,0.1397,0,0,0,0,0,0,0.1057,0.1063,0.1121,0.1137,0.1143,0.1148,0.1156,0.116,0.1213,0.1194,0.12,0.1208,0.1262,0.1265,0.1269,0.1273,0.13,0.1301,0.1302,0.1302,0.1395,0.1397,0,0,0,0,0,0,0.106,0.1065,0.1137,0.1141,0.1146,0.1185,0.1153,0.1194,0.1221,0.1192,0.1225,0.1228,0.126,0.1264,0.1267,0.1269,0.1272,0.13,0.1301,0.1301,0.1301,0,0,0,0,0,0,0,0.1062,0.1024,0.1101,0.1144,0.1148,0.1154,0.1155,0.1156,0.1221,0.1223,0.1225,0.1227,0.1295,0.1296,0.1297,0.1266,0,0,0.13,0.13,0,0,0,0,0,0,0,0,0.1022,0.1023,0.1102,0.1102,0.1103,0.1154,0.1155,0.1155,0.1222,0.1223,0.1225,0.1226,0.1295,0.1296,0.1296,0,0,0,0,0,0,0,0,0,0,0,0,0,0,0,0.1102,0.1102,0,0.1154,0.1155,0.1155,0.1222,0.1223,0.1224,0.1225,0.1295,0.1296,0.1296,0,0,0,0,0,0,0,0,0,0,0,0,0,0,0,0,0,0,0,0,0,0,0,0,0,0,0,0,0,0,0,0,0,0,0,0,0,0,0,0,0,0,0,0,0,0,0,0,0,0,0,0,0,0,0,0,0,0,0,0,0,0,0,0,0,0,0,0,0]}],[{"header":{"parameterUnit":"kt","parameterCategory":2,"dx":1,"dy":1,"la1":30.253999710083008,"la2":30.299108505249023,"lo1":-89.0895004272461,"lo2":-89.04439544677734,"nx":28,"ny":28,"refTime":"2022-10-26T21:00:00:Z","depth":"4","parameterNumber":3,"parameterNumberName":"V-component_of_CURRENTS"},"data":[0.0331,0.0345,0.0388,0.0391,0.0414,0.0461,0.0492,0.0512,0.0486,0.0488,0.0375,0.0337,0.0122,0.0233,-0.01,-0.0144,-0.0049,-0.0418,-0.0422,-0.0214,-0.0194,-0.0176,-0.0117,0,0,0,0,0,0.0389,0.0402,0.0415,0.0454,0.0489,0.0527,0.0554,0.0593,0.0618,0.0525,0.0558,0.037,0.0141,0.0051,-0.0101,-0.0142,-0.0184,-0.0326,-0.0144,-0.0201,-0.0179,-0.013,0,0,0,0,0,0,0.0476,0.0478,0.0534,0.0548,0.0573,0.0594,0.062,0.062,0.063,0.0618,0.054,0.0398,0.033,0.0113,-0.0043,-0.0171,-0.015,-0.0122,-0.0105,-0.0086,-0.004,-0.0025,-0.029,0,0,0,0,0,0.0568,0.0592,0.0645,0.0669,0.068,0.0718,0.0745,0.0723,0.079,0.0792,0.0674,0.0553,0.0323,0.0199,0.0019,-0.0085,0.0034,-0.01,-0.0086,0.0056,0.0068,-0.0012,0.0004,-0.0096,-0.0094,-0.0092,-0.0091,0,0.0617,0.0667,0.0768,0.0777,0.0811,0.0859,0.0873,0.0954,0.095,0.09,0.0844,0.0682,0.0623,0.0291,0.0216,0.0047,0.0021,-0.0045,0.0107,0.0106,0.0016,0.0028,0.0037,-0.0073,-0.0075,-0.0076,-0.0077,0,0.0615,0.0721,0.081,0.0932,0.0952,0.0981,0.1019,0.1042,0.1068,0.1009,0.099,0.0937,0.0758,0.0674,0.0489,0.0425,0.0262,0.016,0.0376,0.0281,0.0067,0.007,-0.0044,-0.0051,-0.0056,-0.0061,-0.0064,0,0.0649,0.0726,0.0851,0.0889,0.0962,0.1047,0.1087,0.1131,0.1147,0.1118,0.1143,0.1059,0.1001,0.0858,0.0771,0.0523,0.0574,0.0397,0.0294,0.0511,0.0512,0.0417,0.0406,0.0519,0.0521,0.0522,0.0523,0,0.0587,0.0745,0.0853,0.0883,0.0991,0.1037,0.1079,0.1122,0.1133,0.1153,0.1089,0.1132,0.1027,0.0966,0.0773,0.0797,0.0584,0.0571,0.0347,0.0332,0.042,0.0408,0.0524,0.0525,0.0525,0.0525,0.0526,0,0.0581,0.0665,0.0799,0.0906,0.093,0.0969,0.1032,0.1087,0.1111,0.1086,0.11,0.1027,0.1053,0.0967,0.087,0.0875,0.0753,0.065,0.0638,0.0426,0.0262,0.0305,0.0427,0.0428,0.0428,0.0428,0.0429,0,0.0488,0.0633,0.0673,0.0779,0.0837,0.0829,0.0898,0.0928,0.091,0.0915,0.0913,0.0889,0.0874,0.0829,0.0845,0.0694,0.0695,0.074,0.0425,0.0417,0.0279,0.0356,0.0602,0.0434,0.0433,0.0433,0.0433,0,0.0398,0.0521,0.0528,0.0576,0.0607,0.0626,0.0705,0.0756,0.0781,0.0758,0.079,0.0825,0.0758,0.0746,0.0694,0.0684,0.069,0.0548,0.0539,0.0487,0.0529,0.0377,0.0358,0.0595,0.0597,0.0598,0.0436,0,0.0383,0.0425,0.0459,0.0517,0.0532,0.0564,0.0563,0.0574,0.0531,0.0516,0.0545,0.0487,0.0465,0.0469,0.0428,0.05,0.0399,0.0325,0.0249,0.0353,0.0261,0.026,0.0221,0.0217,0.0214,0.0211,0,0,0.0269,0.0334,0.0313,0.037,0.0384,0.0316,0.0375,0.0372,0.033,0.0346,0.0274,0.0237,0.0194,0.0271,0.0319,0.0264,0.0178,0.0252,0.03,0.0311,0.032,0.0241,0.0243,0.0205,0.0204,0.0203,0.0202,0,0.0269,0.024,0.0299,0.0304,0.0304,0.0286,0.0291,0.0258,0.0252,0.0247,0.0183,0.0179,0.0106,0.0123,0.0113,0.0211,0.008,0.0175,0.0329,0.0273,0.0289,0.0301,0.0227,0.0231,0.0194,0.0194,0.0194,0,0.0209,0.0213,0.0221,0.0223,0.0209,0.0242,0.0163,0.0165,0.0196,0.0065,0.0077,0.0018,-0.0039,-0.0014,-0.0018,-0.0058,-0.0016,-0.0023,-0.0008,0.002,-0.0044,-0.0026,-0.001,-0.0219,-0.022,-0.022,0,0,0.0205,0.0232,0.0208,0.0215,0.0218,0.0172,0.0162,0.0133,0.0096,0.0077,0.0017,-0.0037,-0.0053,-0.0069,-0.0108,-0.0096,-0.0168,-0.0065,-0.0046,-0.0029,0.0007,-0.0051,-0.0034,-0.0223,-0.0223,-0.0223,0,0,0.0195,0.0192,0.0165,0.0174,0.0166,0.0127,0.0133,0.0091,0.0054,0.0036,-0.0048,-0.0065,-0.0064,-0.0126,-0.0146,-0.0112,-0.0202,-0.02,-0.0044,-0.0021,-0.0003,0.0056,-0.0226,0,0,0,0,0,0.018,0.02,0.0176,0.0171,0.0133,0.014,0.0133,0.0086,0.004,0.0054,-0.0006,-0.0067,-0.014,-0.016,-0.0176,-0.0113,-0.0252,-0.0247,-0.0242,-0.0041,-0.0016,0.0005,0,0,0,0,0,0,0.0178,0.0175,0.0175,0.0139,0.013,0.0138,0.0074,0.0061,0.0039,0.0032,-0.0052,-0.0069,-0.0121,-0.0157,-0.0171,-0.0108,-0.0221,-0.025,-0.0246,-0.0242,-0.0033,-0.0012,0.0005,0,0,0,0,0,0.0177,0.0174,0.0127,0.0137,0.0129,0.0075,0.0072,0.0061,0.0039,-0.0037,-0.0053,0.0005,-0.0119,-0.0135,-0.0166,-0.0099,-0.0212,-0.0217,-0.0247,-0.0244,-0.0241,-0.0023,0,0,0,0,0,0,0.0175,0.0156,0.0124,0.0119,0.0128,0.0073,0.0064,0.0062,-0.0031,-0.0045,0.0017,0.0013,-0.0117,-0.013,-0.0143,-0.0089,-0.0205,-0.021,-0.0213,-0.0244,-0.0242,-0.0239,0,0,0,0,0,0,0.0158,0.0153,0.0122,0.0112,0.0106,0.0072,0.0065,0.002,-0.0033,0.0027,0.0021,0.0016,-0.0112,-0.0127,-0.0137,-0.0204,-0.02,-0.0204,-0.0207,-0.021,-0.0242,-0.024,0,0,0,0,0,0,0.0155,0.015,0.0113,0.0108,0.0102,0.0044,0.0029,-0.0017,-0.0008,0.003,-0.0012,-0.0014,-0.0108,-0.0118,-0.0132,-0.0194,-0.0202,-0.02,-0.0203,-0.0205,-0.0207,0,0,0,0,0,0,0,0.0152,0.0196,0.0155,0.0105,0.0099,0.0076,0.0075,0.0073,-0.0009,-0.001,-0.0011,-0.0013,-0.0173,-0.0178,-0.0183,-0.0187,0,0,-0.0199,-0.0202,0,0,0,0,0,0,0,0,0.0196,0.0196,0.0155,0.0154,0.0154,0.0076,0.0075,0.0073,-0.0009,-0.001,-0.0011,-0.0012,-0.0175,-0.0179,-0.0183,0,0,0,0,0,0,0,0,0,0,0,0,0,0,0,0.0155,0.0154,0,0.0076,0.0075,0.0074,-0.0009,-0.001,-0.0011,-0.0012,-0.0176,-0.0179,-0.0183,0,0,0,0,0,0,0,0,0,0,0,0,0,0,0,0,0,0,0,0,0,0,0,0,0,0,0,0,0,0,0,0,0,0,0,0,0,0,0,0,0,0,0,0,0,0,0,0,0,0,0,0,0,0,0,0,0,0,0,0,0,0,0,0,0,0,0,0,0]}]]]